Location: Peterborough
(44.3091°N, 78.3197°W)
Time: 07:02:05
(UTC-04:00)

Vanguard 3 - Pass Details

Date: 28 March 2023
Orbit: 507 x 3246 km, 33.4° (Epoch: 04 June)

Event Time Altitude Azimuth Distance (km) Brightness Sun altitude
Rises 07:17:56 0° 270° (W) 7,157 11.2 2.0°
Reaches altitude 10° 07:22:54 10° 266° (W) 6,183 11.0 2.9°
Maximum altitude 07:41:21 51° 199° (SSW) 3,342 10.3 6.2°
Drops below altitude 10° 07:54:40 10° 128° (SE) 4,585 12.1 8.6°
Sets 07:57:45 0° 123° (ESE) 5,265 12.5 9.1°
